| time (UTC) | temp C | wind direction | speed KPH | gust KPH | rain 1hr cm | rain 24hr cm | rain mn cm | humidity % | barometer mb |
| 20260510083204 | 21 | 324 | 1.6 | 4.8 | 0.00 | 0.10 | 0.00 | 93 | 1008.0 |
| 20260510082704 | 21 | 28 | 3.2 | 4.8 | 0.00 | 0.10 | 0.00 | 92 | 1008.0 |
| 20260510082203 | 21 | 53 | 0.0 | 1.6 | 0.00 | 0.10 | 0.00 | 92 | 1007.8 |
| 20260510081204 | 21 | 129 | 0.0 | 1.6 | 0.00 | 0.10 | 0.00 | 93 | 1007.8 |
| 20260510080704 | 21 | 85 | 0.0 | 1.6 | 0.00 | 0.10 | 0.00 | 92 | 1007.7 |
| 20260510080203 | 21 | 229 | 0.0 | 1.6 | 0.00 | 0.10 | 0.00 | 92 | 1007.9 |
| 20260510075704 | 21 | 224 | 0.0 | 1.6 | 0.00 | 0.10 | 0.00 | 92 | 1007.7 |
| 20260510075203 | 21 | 162 | 0.0 | 1.6 | 0.00 | 0.10 | 0.00 | 92 | 1007.8 |
| 20260510074703 | 21 | 229 | 0.0 | 1.6 | 0.00 | 0.10 | 0.00 | 92 | 1007.7 |
| 20260510074204 | 21 | 228 | 0.0 | 1.6 | 0.00 | 0.10 | 0.00 | 92 | 1007.8 |
| 20260510073704 | 21 | 77 | 0.0 | 1.6 | 0.00 | 0.10 | 0.00 | 91 | 1007.9 |
| 20260510073203 | 21 | 305 | 0.0 | 1.6 | 0.00 | 0.10 | 0.00 | 91 | 1008.0 |
| 20260510072704 | 21 | 264 | 0.0 | 1.6 | 0.00 | 0.10 | 0.00 | 91 | 1008.1 |
| 20260510072204 | 21 | 226 | 0.0 | 3.2 | 0.00 | 0.10 | 0.00 | 91 | 1008.0 |
| 20260510071704 | 21 | 124 | 0.0 | 3.2 | 0.00 | 0.10 | 0.00 | 91 | 1008.2 |
| 20260510071203 | 21 | 50 | 1.6 | 3.2 | 0.00 | 0.10 | 0.00 | 90 | 1008.2 |
| 20260510070704 | 21 | 123 | 1.6 | 4.8 | 0.00 | 0.10 | 0.00 | 89 | 1008.1 |
| 20260510070203 | 22 | 139 | 0.0 | 8.0 | 0.00 | 0.10 | 0.00 | 89 | 1008.2 |
| 20260510065703 | 22 | 42 | 1.6 | 8.0 | 0.00 | 0.10 | 0.00 | 88 | 1008.0 |
| 20260510065204 | 22 | 50 | 3.2 | 8.0 | 0.00 | 0.10 | 0.00 | 87 | 1008.2 |
| 20260510064704 | 22 | 269 | 1.6 | 3.2 | 0.00 | 0.10 | 0.00 | 88 | 1008.2 |
| 20260510064203 | 22 | 245 | 1.6 | 3.2 | 0.00 | 0.10 | 0.00 | 87 | 1008.3 |
| 20260510063703 | 22 | 94 | 0.0 | 3.2 | 0.00 | 0.10 | 0.00 | 88 | 1008.4 |
| 20260510063204 | 22 | 287 | 1.6 | 3.2 | 0.00 | 0.10 | 0.00 | 89 | 1008.3 |
| 20260510062704 | 22 | 46 | 0.0 | 3.2 | 0.00 | 0.10 | 0.00 | 89 | 1008.2 |
| 20260510061703 | 21 | 122 | 1.6 | 4.8 | 0.00 | 0.10 | 0.00 | 89 | 1008.3 |
| 20260510061203 | 21 | 238 | 1.6 | 4.8 | 0.00 | 0.10 | 0.00 | 89 | 1008.3 |
| 20260510060204 | 21 | 97 | 1.6 | 8.0 | 0.00 | 0.10 | 0.00 | 89 | 1008.3 |
| 20260510055704 | 22 | 52 | 3.2 | 8.0 | 0.00 | 0.10 | 0.00 | 88 | 1008.3 |
| 20260510054704 | 22 | 83 | 1.6 | 4.8 | 0.00 | 0.10 | 0.00 | 87 | 1008.2 |
| 20260510054204 | 22 | 66 | 1.6 | 4.8 | 0.00 | 0.10 | 0.00 | 86 | 1008.3 |
| 20260510053704 | 22 | 54 | 3.2 | 4.8 | 0.00 | 0.10 | 0.00 | 87 | 1008.1 |
| 20260510053204 | 22 | 83 | 3.2 | 3.2 | 0.00 | 0.10 | 0.00 | 87 | 1008.3 |
| 20260510052703 | 22 | 161 | 0.0 | 1.6 | 0.00 | 0.10 | 0.00 | 86 | 1008.2 |
| 20260510052204 | 22 | 274 | 0.0 | 1.6 | 0.00 | 0.10 | 0.00 | 86 | 1008.0 |
| 20260510051704 | 22 | 257 | 0.0 | 1.6 | 0.00 | 0.10 | 0.00 | 85 | 1008.1 |
| 20260510051203 | 22 | 162 | 0.0 | 0.0 | 0.00 | 0.10 | 0.00 | 84 | 1008.0 |
| 20260510050703 | 22 | 149 | 0.0 | 1.6 | 0.00 | 0.10 | 0.00 | 83 | 1008.0 |
| 20260510045703 | 22 | 356 | 1.6 | 3.2 | 0.00 | 0.10 | 0.10 | 83 | 1007.7 |
| 20260510045204 | 23 | 40 | 1.6 | 3.2 | 0.00 | 0.10 | 0.10 | 82 | 1007.7 |
| 20260510044703 | 22 | 162 | 0.0 | 1.6 | 0.00 | 0.10 | 0.10 | 82 | 1007.7 |
| 20260510044204 | 22 | 191 | 0.0 | 1.6 | 0.00 | 0.10 | 0.10 | 83 | 1007.5 |
| 20260510042704 | 22 | 170 | 0.0 | 1.6 | 0.00 | 0.10 | 0.10 | 82 | 1007.7 |
| 20260510042203 | 22 | 172 | 0.0 | 1.6 | 0.00 | 0.10 | 0.10 | 83 | 1007.7 |
| 20260510041203 | 23 | 203 | 0.0 | 4.8 | 0.00 | 0.10 | 0.10 | 82 | 1007.7 |
| 20260510040703 | 23 | 358 | 0.0 | 4.8 | 0.00 | 0.10 | 0.10 | 82 | 1007.6 |
| 20260510040203 | 23 | 39 | 3.2 | 4.8 | 0.00 | 0.10 | 0.10 | 81 | 1007.6 |
| 20260510035704 | 23 | 203 | 0.0 | 3.2 | 0.00 | 0.10 | 0.10 | 81 | 1007.5 |
| 20260510035204 | 23 | 184 | 1.6 | 3.2 | 0.00 | 0.10 | 0.10 | 81 | 1007.4 |
| 20260510034704 | 23 | 257 | 0.0 | 1.6 | 0.00 | 0.10 | 0.10 | 79 | 1007.2 |
| 20260510034203 | 23 | 147 | 0.0 | 1.6 | 0.00 | 0.10 | 0.10 | 79 | 1007.3 |
| 20260510033704 | 23 | 320 | 0.0 | 1.6 | 0.00 | 0.10 | 0.10 | 78 | 1007.3 |
| 20260510033204 | 24 | 330 | 0.0 | 3.2 | 0.00 | 0.10 | 0.10 | 78 | 1007.3 |
| 20260510032703 | 24 | 247 | 0.0 | 3.2 | 0.00 | 0.10 | 0.10 | 77 | 1007.2 |
| 20260510030703 | 24 | 303 | 0.0 | 3.2 | 0.00 | 0.10 | 0.10 | 76 | 1007.0 |
| 20260510025704 | 24 | 152 | 0.0 | 1.6 | 0.00 | 0.10 | 0.10 | 75 | 1006.8 |
| 20260510024704 | 25 | 258 | 0.0 | 3.2 | 0.00 | 0.10 | 0.10 | 75 | 1006.6 |
| 20260510024204 | 25 | 331 | 0.0 | 3.2 | 0.00 | 0.10 | 0.10 | 75 | 1006.7 |
| 20260510023704 | 25 | 45 | 1.6 | 3.2 | 0.00 | 0.10 | 0.10 | 76 | 1006.6 |
| 20260510023204 | 25 | 38 | 0.0 | 3.2 | 0.00 | 0.10 | 0.10 | 74 | 1006.2 |
| 20260510022703 | 25 | 49 | 0.0 | 3.2 | 0.00 | 0.10 | 0.10 | 73 | 1006.0 |
| 20260510022203 | 26 | 29 | 1.6 | 3.2 | 0.00 | 0.10 | 0.10 | 72 | 1006.0 |
| 20260510021703 | 26 | 341 | 0.0 | 3.2 | 0.00 | 0.10 | 0.10 | 72 | 1005.8 |
| 20260510021203 | 26 | 113 | 0.0 | 3.2 | 0.00 | 0.10 | 0.10 | 71 | 1005.8 |
| 20260510020704 | 26 | 49 | 0.0 | 3.2 | 0.00 | 0.10 | 0.10 | 71 | 1005.6 |
| 20260510020204 | 26 | 6 | 0.0 | 4.8 | 0.00 | 0.10 | 0.10 | 70 | 1005.8 |
| 20260510015704 | 26 | 301 | 0.0 | 4.8 | 0.00 | 0.10 | 0.10 | 69 | 1005.4 |
| 20260510015204 | 26 | 69 | 1.6 | 4.8 | 0.00 | 0.10 | 0.10 | 69 | 1005.5 |
| 20260510014704 | 26 | 118 | 1.6 | 4.8 | 0.00 | 0.10 | 0.10 | 69 | 1005.6 |
| 20260510014203 | 26 | 185 | 3.2 | 4.8 | 0.00 | 0.10 | 0.10 | 69 | 1005.3 |
| 20260510013703 | 26 | 164 | 1.6 | 4.8 | 0.00 | 0.10 | 0.10 | 71 | 1005.5 |
| 20260510013204 | 26 | 109 | 1.6 | 3.2 | 0.00 | 0.10 | 0.10 | 71 | 1005.5 |
| 20260510012704 | 26 | 335 | 0.0 | 3.2 | 0.00 | 0.10 | 0.10 | 71 | 1005.3 |
| 20260510012204 | 27 | 340 | 1.6 | 3.2 | 0.00 | 0.10 | 0.10 | 71 | 1005.5 |
| 20260510011204 | 27 | 233 | 0.0 | 3.2 | 0.00 | 0.10 | 0.10 | 70 | 1005.6 |
| 20260510010703 | 27 | 158 | 1.6 | 3.2 | 0.00 | 0.10 | 0.10 | 69 | 1005.7 |
| 20260510010203 | 27 | 195 | 1.6 | 3.2 | 0.00 | 0.10 | 0.10 | 68 | 1005.6 |
| 20260510005204 | 28 | 245 | 1.6 | 8.0 | 0.00 | 0.10 | 0.10 | 67 | 1005.6 |
| 20260510004704 | 28 | 174 | 1.6 | 8.0 | 0.00 | 0.10 | 0.10 | 66 | 1005.7 |
| 20260510004204 | 28 | 184 | 3.2 | 8.0 | 0.00 | 0.10 | 0.10 | 66 | 1005.9 |
| 20260510003704 | 28 | 182 | 3.2 | 9.7 | 0.00 | 0.10 | 0.10 | 65 | 1005.7 |
| 20260510003203 | 28 | 181 | 3.2 | 9.7 | 0.00 | 0.10 | 0.10 | 65 | 1005.5 |
| 20260510001704 | 30 | 179 | 3.2 | 9.7 | 0.00 | 0.10 | 0.10 | 62 | 1005.3 |
| 20260510000703 | 31 | 165 | 1.6 | 3.2 | 0.00 | 0.10 | 0.10 | 55 | 1005.0 |
| 20260510000204 | 31 | 159 | 0.0 | 8.0 | 0.00 | 0.10 | 0.10 | 55 | 1004.9 |
| 20260509235704 | 31 | 159 | 0.0 | 8.0 | 0.00 | 0.10 | 0.10 | 55 | 1004.9 |
| 20260509234704 | 31 | 156 | 1.6 | 4.8 | 0.00 | 0.10 | 0.10 | 56 | 1004.9 |
| 20260509233704 | 31 | 134 | 0.0 | 3.2 | 0.00 | 0.10 | 0.10 | 57 | 1004.8 |
| 20260509232704 | 31 | 144 | 0.0 | 1.6 | 0.00 | 0.10 | 0.10 | 56 | 1004.8 |
| 20260509231704 | 31 | 145 | 0.0 | 3.2 | 0.00 | 0.10 | 0.10 | 54 | 1004.6 |
| 20260509231204 | 32 | 187 | 0.0 | 3.2 | 0.00 | 0.10 | 0.10 | 53 | 1004.9 |
| 20260509230704 | 32 | 156 | 0.0 | 3.2 | 0.00 | 0.10 | 0.10 | 52 | 1004.9 |
| 20260509230203 | 32 | 70 | 0.0 | 3.2 | 0.00 | 0.10 | 0.10 | 52 | 1004.9 |
| 20260509225704 | 32 | 170 | 1.6 | 3.2 | 0.00 | 0.10 | 0.10 | 52 | 1004.7 |
| 20260509224703 | 32 | 155 | 0.0 | 1.6 | 0.00 | 0.10 | 0.10 | 51 | 1004.7 |
| 20260509224204 | 31 | 195 | 0.0 | 1.6 | 0.00 | 0.10 | 0.10 | 53 | 1004.9 |
| 20260509223703 | 31 | 87 | 0.0 | 1.6 | 0.00 | 0.10 | 0.10 | 54 | 1004.8 |
| 20260509223204 | 31 | 204 | 0.0 | 1.6 | 0.00 | 0.10 | 0.10 | 52 | 1005.0 |
| 20260509222704 | 31 | 49 | 0.0 | 1.6 | 0.00 | 0.10 | 0.10 | 51 | 1004.8 |
| 20260509221703 | 31 | 2 | 1.6 | 8.0 | 0.00 | 0.10 | 0.10 | 51 | 1004.7 |
| 20260509221203 | 31 | 54 | 1.6 | 12.9 | 0.00 | 0.10 | 0.10 | 51 | 1004.8 |
| 20260509220704 | 31 | 59 | 4.8 | 12.9 | 0.00 | 0.10 | 0.10 | 52 | 1004.9 |
| 20260509220204 | 31 | 15 | 3.2 | 12.9 | 0.00 | 0.10 | 0.10 | 51 | 1004.8 |
| 20260509215704 | 31 | 339 | 3.2 | 12.9 | 0.00 | 0.10 | 0.10 | 51 | 1004.8 |
| 20260509215204 | 31 | 338 | 3.2 | 8.0 | 0.00 | 0.10 | 0.10 | 52 | 1005.0 |
| 20260509214203 | 31 | 39 | 4.8 | 14.5 | 0.00 | 0.10 | 0.10 | 50 | 1004.9 |
| 20260509213703 | 32 | 17 | 6.4 | 14.5 | 0.00 | 0.10 | 0.10 | 49 | 1004.9 |
| 20260509212703 | 33 | 338 | 3.2 | 8.0 | 0.00 | 0.10 | 0.10 | 48 | 1004.8 |
| 20260509211703 | 32 | 306 | 1.6 | 14.5 | 0.00 | 0.10 | 0.10 | 51 | 1004.9 |
| 20260509211204 | 32 | 316 | 4.8 | 11.3 | 0.00 | 0.10 | 0.10 | 50 | 1004.9 |
| 20260509210704 | 32 | 316 | 1.6 | 4.8 | 0.00 | 0.10 | 0.10 | 51 | 1005.0 |
| 20260509210204 | 32 | 304 | 3.2 | 4.8 | 0.00 | 0.10 | 0.10 | 52 | 1005.0 |
| 20260509205704 | 32 | 325 | 1.6 | 4.8 | 0.00 | 0.10 | 0.10 | 52 | 1005.0 |
| 20260509205203 | 31 | 181 | 3.2 | 8.0 | 0.00 | 0.10 | 0.10 | 52 | 1005.1 |
| 20260509204704 | 31 | 204 | 1.6 | 9.7 | 0.00 | 0.10 | 0.10 | 51 | 1005.2 |
| 20260509204203 | 31 | 264 | 3.2 | 9.7 | 0.00 | 0.10 | 0.10 | 54 | 1005.2 |
| 20260509203704 | 31 | 334 | 3.2 | 9.7 | 0.00 | 0.10 | 0.10 | 52 | 1005.4 |
| 20260509203204 | 31 | 299 | 3.2 | 9.7 | 0.00 | 0.10 | 0.10 | 53 | 1005.3 |
| 20260509202703 | 32 | 223 | 3.2 | 14.5 | 0.00 | 0.10 | 0.10 | 51 | 1005.4 |
| 20260509202203 | 31 | 255 | 3.2 | 14.5 | 0.00 | 0.10 | 0.10 | 54 | 1005.2 |
| 20260509201203 | 31 | 18 | 3.2 | 16.1 | 0.00 | 0.10 | 0.10 | 51 | 1005.3 |
| 20260509200703 | 32 | 345 | 9.7 | 16.1 | 0.00 | 0.10 | 0.10 | 51 | 1005.6 |
| 20260509195704 | 32 | 285 | 3.2 | 11.3 | 0.00 | 0.10 | 0.10 | 52 | 1005.7 |
| 20260509195203 | 31 | 255 | 3.2 | 11.3 | 0.00 | 0.10 | 0.10 | 54 | 1005.8 |
| 20260509194704 | 31 | 320 | 4.8 | 11.3 | 0.00 | 0.10 | 0.10 | 53 | 1005.8 |
| 20260509194204 | 31 | 322 | 1.6 | 4.8 | 0.00 | 0.10 | 0.10 | 53 | 1005.9 |
| 20260509193704 | 31 | 188 | 3.2 | 8.0 | 0.00 | 0.10 | 0.10 | 54 | 1005.8 |
| 20260509193204 | 31 | 24 | 1.6 | 8.0 | 0.00 | 0.10 | 0.10 | 52 | 1006.0 |
| 20260509192703 | 31 | 260 | 1.6 | 4.8 | 0.00 | 0.10 | 0.10 | 55 | 1005.9 |
| 20260509192204 | 31 | 311 | 3.2 | 9.7 | 0.00 | 0.10 | 0.10 | 56 | 1006.0 |
| 20260509191704 | 31 | 233 | 3.2 | 9.7 | 0.00 | 0.10 | 0.10 | 53 | 1006.2 |
| 20260509191204 | 30 | 177 | 3.2 | 9.7 | 0.00 | 0.10 | 0.10 | 53 | 1006.2 |
| 20260509190704 | 30 | 337 | 8.0 | 9.7 | 0.00 | 0.10 | 0.10 | 54 | 1006.2 |
| 20260509190204 | 30 | 346 | 4.8 | 9.7 | 0.00 | 0.10 | 0.10 | 55 | 1006.3 |
| 20260509185704 | 30 | 61 | 1.6 | 12.9 | 0.00 | 0.10 | 0.10 | 56 | 1006.3 |
| 20260509184704 | 30 | 328 | 6.4 | 12.9 | 0.00 | 0.10 | 0.10 | 53 | 1006.3 |
| 20260509184203 | 31 | 326 | 1.6 | 4.8 | 0.00 | 0.10 | 0.10 | 54 | 1006.4 |
| 20260509183704 | 30 | 235 | 3.2 | 4.8 | 0.00 | 0.10 | 0.10 | 56 | 1006.4 |
| 20260509183204 | 30 | 226 | 3.2 | 14.5 | 0.00 | 0.10 | 0.10 | 55 | 1006.5 |
| 20260509182204 | 30 | 352 | 4.8 | 8.0 | 0.00 | 0.10 | 0.10 | 56 | 1006.6 |
| 20260509181704 | 30 | 331 | 3.2 | 4.8 | 0.00 | 0.10 | 0.10 | 55 | 1006.8 |
| 20260509181203 | 30 | 281 | 1.6 | 11.3 | 0.00 | 0.10 | 0.10 | 56 | 1007.0 |
| 20260509180204 | 29 | 341 | 3.2 | 9.7 | 0.00 | 0.10 | 0.10 | 59 | 1007.0 |
| 20260509174203 | 28 | 245 | 1.6 | 9.7 | 0.00 | 0.10 | 0.10 | 61 | 1007.3 |
| 20260509173704 | 28 | 269 | 3.2 | 9.7 | 0.00 | 0.10 | 0.10 | 63 | 1007.4 |
| 20260509173204 | 28 | 350 | 4.8 | 12.9 | 0.00 | 0.10 | 0.10 | 62 | 1007.5 |
| 20260509171703 | 28 | 289 | 1.6 | 9.7 | 0.00 | 0.10 | 0.10 | 63 | 1007.5 |
| 20260509170703 | 28 | 336 | 8.0 | 14.5 | 0.00 | 0.10 | 0.10 | 65 | 1007.6 |
| 20260509170204 | 28 | 337 | 4.8 | 11.3 | 0.00 | 0.10 | 0.10 | 67 | 1007.3 |
| 20260509165703 | 28 | 276 | 1.6 | 11.3 | 0.00 | 0.10 | 0.10 | 67 | 1007.4 |
| 20260509165203 | 28 | 356 | 8.0 | 11.3 | 0.00 | 0.10 | 0.10 | 65 | 1007.4 |
| 20260509164704 | 27 | 254 | 1.6 | 12.9 | 0.00 | 0.10 | 0.10 | 68 | 1007.4 |
| 20260509163704 | 28 | 329 | 8.0 | 12.9 | 0.00 | 0.10 | 0.10 | 67 | 1007.4 |
| 20260509163203 | 28 | 311 | 4.8 | 8.0 | 0.00 | 0.10 | 0.10 | 68 | 1007.1 |
| 20260509161704 | 28 | 28 | 0.0 | 3.2 | 0.00 | 0.10 | 0.10 | 67 | 1006.5 |
| 20260509161203 | 28 | 322 | 0.0 | 4.8 | 0.00 | 0.10 | 0.10 | 68 | 1006.9 |
| 20260509160703 | 27 | 338 | 1.6 | 9.7 | 0.00 | 0.10 | 0.10 | 70 | 1006.9 |
| 20260509160203 | 28 | 271 | 1.6 | 9.7 | 0.00 | 0.10 | 0.10 | 71 | 1006.9 |
| 20260509155704 | 28 | 313 | 3.2 | 8.0 | 0.00 | 0.10 | 0.10 | 67 | 1006.7 |
| 20260509155204 | 28 | 261 | 0.0 | 4.8 | 0.00 | 0.10 | 0.10 | 70 | 1006.6 |
| 20260509154704 | 28 | 151 | 1.6 | 4.8 | 0.00 | 0.10 | 0.10 | 73 | 1006.8 |
| 20260509154204 | 27 | 339 | 1.6 | 4.8 | 0.00 | 0.10 | 0.10 | 76 | 1006.8 |
| 20260509153703 | 27 | 154 | 0.0 | 4.8 | 0.00 | 0.10 | 0.10 | 76 | 1007.0 |
| 20260509153204 | 27 | 300 | 0.0 | 1.6 | 0.00 | 0.10 | 0.10 | 77 | 1006.9 |
| 20260509152704 | 27 | 91 | 0.0 | 3.2 | 0.00 | 0.13 | 0.10 | 79 | 1006.9 |
| 20260509152204 | 26 | 320 | 0.0 | 3.2 | 0.00 | 0.13 | 0.10 | 83 | 1007.2 |
| 20260509151704 | 25 | 333 | 1.6 | 3.2 | 0.00 | 0.13 | 0.10 | 84 | 1006.8 |
| 20260509151204 | 25 | 211 | 0.0 | 3.2 | 0.00 | 0.13 | 0.10 | 83 | 1006.6 |
| 20260509150704 | 25 | 254 | 1.6 | 3.2 | 0.00 | 0.13 | 0.10 | 84 | 1006.8 |
| 20260509150204 | 25 | 172 | 1.6 | 3.2 | 0.00 | 0.13 | 0.10 | 86 | 1006.8 |
| 20260509145704 | 25 | 146 | 0.0 | 4.8 | 0.00 | 0.13 | 0.10 | 87 | 1006.9 |
| 20260509144704 | 25 | 183 | 1.6 | 3.2 | 0.00 | 0.13 | 0.10 | 88 | 1006.9 |
| 20260509144204 | 25 | 254 | 0.0 | 1.6 | 0.00 | 0.13 | 0.10 | 88 | 1007.4 |
| 20260509143204 | 25 | 49 | 0.0 | 1.6 | 0.00 | 0.13 | 0.10 | 88 | 1007.5 |
| 20260509142703 | 25 | 229 | 0.0 | 1.6 | 0.00 | 0.13 | 0.10 | 88 | 1007.5 |
| 20260509142204 | 25 | 140 | 0.0 | 1.6 | 0.00 | 0.13 | 0.10 | 89 | 1007.6 |
| 20260509141704 | 25 | 222 | 0.0 | 1.6 | 0.00 | 0.13 | 0.10 | 88 | 1007.6 |
| 20260509140704 | 25 | 183 | 0.0 | 1.6 | 0.00 | 0.13 | 0.10 | 88 | 1007.5 |
| 20260509140203 | 25 | 321 | 0.0 | 1.6 | 0.00 | 0.13 | 0.10 | 89 | 1007.5 |
| 20260509135704 | 25 | 274 | 0.0 | 1.6 | 0.00 | 0.13 | 0.10 | 89 | 1007.3 |
| 20260509135203 | 25 | 94 | 0.0 | 1.6 | 0.00 | 0.13 | 0.10 | 89 | 1007.4 |
| 20260509134704 | 24 | 69 | 0.0 | 1.6 | 0.00 | 0.13 | 0.10 | 90 | 1007.8 |
| 20260509134203 | 24 | 314 | 0.0 | 1.6 | 0.00 | 0.13 | 0.10 | 90 | 1007.7 |
| 20260509133703 | 24 | 296 | 0.0 | 1.6 | 0.00 | 0.13 | 0.10 | 90 | 1007.5 |
| 20260509133204 | 24 | 171 | 1.6 | 1.6 | 0.00 | 0.13 | 0.10 | 91 | 1007.5 |
| 20260509132704 | 24 | 260 | 0.0 | 1.6 | 0.00 | 0.13 | 0.10 | 90 | 1007.4 |
| 20260509132204 | 24 | 74 | 0.0 | 3.2 | 0.00 | 0.13 | 0.10 | 90 | 1007.2 |
| 20260509131703 | 24 | 349 | 1.6 | 8.0 | 0.00 | 0.13 | 0.10 | 89 | 1007.1 |
| 20260509131203 | 24 | 343 | 3.2 | 8.0 | 0.00 | 0.13 | 0.10 | 89 | 1007.0 |
| 20260509130703 | 24 | 356 | 4.8 | 11.3 | 0.00 | 0.13 | 0.10 | 88 | 1007.2 |
| 20260509130203 | 24 | 336 | 4.8 | 11.3 | 0.00 | 0.13 | 0.10 | 88 | 1007.4 |
| 20260509125703 | 24 | 330 | 4.8 | 11.3 | 0.00 | 0.15 | 0.10 | 87 | 1007.0 |
| 20260509125204 | 24 | 333 | 6.4 | 19.3 | 0.00 | 0.15 | 0.10 | 87 | 1007.0 |
| 20260509124704 | 24 | 328 | 8.0 | 19.3 | 0.00 | 0.15 | 0.10 | 86 | 1007.1 |
| 20260509124204 | 24 | 336 | 8.0 | 24.1 | 0.00 | 0.15 | 0.10 | 85 | 1006.8 |
| 20260509123204 | 24 | 335 | 11.3 | 24.1 | 0.03 | 0.15 | 0.10 | 91 | 1006.9 |
| 20260509122703 | 24 | 331 | 6.4 | 11.3 | 0.03 | 0.15 | 0.10 | 89 | 1006.8 |
| 20260509121704 | 24 | 155 | 6.4 | 16.1 | 0.05 | 0.15 | 0.10 | 88 | 1005.0 |
| 20260509121204 | 23 | 146 | 4.8 | 24.1 | 0.05 | 0.15 | 0.10 | 91 | 1003.9 |
| 20260509120703 | 23 | 159 | 9.7 | 24.1 | 0.05 | 0.15 | 0.10 | 94 | 1003.9 |
| 20260509120204 | 23 | 160 | 8.0 | 16.1 | 0.05 | 0.15 | 0.10 | 96 | 1004.0 |
| 20260509115704 | 23 | 156 | 4.8 | 14.5 | 0.08 | 0.15 | 0.10 | 96 | 1004.4 |
| 20260509115203 | 23 | 156 | 4.8 | 14.5 | 0.08 | 0.15 | 0.10 | 96 | 1004.1 |
| 20260509114704 | 23 | 152 | 6.4 | 12.9 | 0.08 | 0.15 | 0.10 | 97 | 1004.8 |
| 20260509114204 | 23 | 129 | 3.2 | 9.7 | 0.08 | 0.15 | 0.10 | 97 | 1005.4 |
| 20260509113704 | 23 | 120 | 1.6 | 8.0 | 0.08 | 0.13 | 0.08 | 97 | 1006.5 |
| 20260509113204 | 23 | 133 | 3.2 | 8.0 | 0.08 | 0.13 | 0.08 | 97 | 1007.7 |
| 20260509112704 | 23 | 161 | 1.6 | 8.0 | 0.08 | 0.13 | 0.08 | 97 | 1007.9 |
| 20260509112204 | 23 | 196 | 4.8 | 8.0 | 0.05 | 0.10 | 0.05 | 98 | 1007.7 |
| 20260509111204 | 23 | 176 | 1.6 | 4.8 | 0.05 | 0.10 | 0.05 | 98 | 1008.0 |
| 20260509110204 | 23 | 51 | 3.2 | 4.8 | 0.03 | 0.08 | 0.03 | 98 | 1007.4 |
| 20260509105704 | 23 | 326 | 1.6 | 8.0 | 0.03 | 0.08 | 0.03 | 97 | 1007.5 |
| 20260509105203 | 23 | 316 | 3.2 | 11.3 | 0.03 | 0.08 | 0.03 | 98 | 1007.2 |
| 20260509104704 | 23 | 332 | 6.4 | 11.3 | 0.03 | 0.08 | 0.03 | 98 | 1006.9 |
| 20260509103704 | 23 | 144 | 0.0 | 4.8 | 0.00 | 0.05 | 0.00 | 98 | 1006.4 |
| 20260509103203 | 23 | 354 | 3.2 | 4.8 | 0.00 | 0.05 | 0.00 | 98 | 1006.6 |
| 20260509102704 | 23 | 176 | 3.2 | 4.8 | 0.00 | 0.05 | 0.00 | 98 | 1006.2 |
| 20260509101704 | 23 | 346 | 0.0 | 3.2 | 0.00 | 0.05 | 0.00 | 98 | 1006.6 |
| 20260509101203 | 23 | 358 | 1.6 | 3.2 | 0.00 | 0.05 | 0.00 | 97 | 1006.7 |
| 20260509100704 | 23 | 91 | 0.0 | 3.2 | 0.00 | 0.05 | 0.00 | 97 | 1006.5 |
| 20260509100203 | 23 | 206 | 1.6 | 3.2 | 0.00 | 0.05 | 0.00 | 97 | 1006.5 |
| 20260509095704 | 23 | 164 | 0.0 | 1.6 | 0.00 | 0.05 | 0.00 | 97 | 1006.1 |
| 20260509095203 | 23 | 319 | 0.0 | 4.8 | 0.00 | 0.05 | 0.00 | 97 | 1006.0 |
| 20260509094703 | 23 | 178 | 0.0 | 4.8 | 0.00 | 0.05 | 0.00 | 97 | 1006.1 |
| 20260509094203 | 23 | 196 | 0.0 | 3.2 | 0.00 | 0.05 | 0.00 | 97 | 1006.2 |
| 20260509093704 | 23 | 205 | 0.0 | 3.2 | 0.00 | 0.05 | 0.00 | 97 | 1006.1 |
| 20260509093203 | 23 | 32 | 0.0 | 1.6 | 0.00 | 0.05 | 0.00 | 97 | 1006.1 |
| 20260509092704 | 23 | 138 | 0.0 | 1.6 | 0.00 | 0.05 | 0.00 | 97 | 1006.1 |
| 20260509091703 | 23 | 346 | 0.0 | 1.6 | 0.00 | 0.05 | 0.00 | 97 | 1005.7 |
| 20260509091204 | 23 | 64 | 0.0 | 1.6 | 0.00 | 0.05 | 0.00 | 97 | 1005.9 |
| 20260509090704 | 23 | 152 | 0.0 | 3.2 | 0.00 | 0.05 | 0.00 | 97 | 1006.1 |
| 20260509090203 | 23 | 186 | 0.0 | 3.2 | 0.00 | 0.05 | 0.00 | 97 | 1006.0 |
| 20260509085704 | 23 | 182 | 1.6 | 3.2 | 0.00 | 0.05 | 0.00 | 97 | 1006.1 |
| 20260509085203 | 23 | 210 | 0.0 | 1.6 | 0.00 | 0.05 | 0.00 | 97 | 1005.8 |
| 20260509084203 | 23 | 20 | 0.0 | 1.6 | 0.00 | 0.05 | 0.00 | 97 | 1005.7 |
| 20260509083704 | 23 | 219 | 0.0 | 1.6 | 0.00 | 0.05 | 0.00 | 97 | 1005.8 |